Weather History for KVAY - November, 2012

Change the Weather History Date:

Tuesday, November 27, 2012

  Actual Average (WUND) Record (WUND)
Temperature  
Mean Temperature 34 °F -  
Max Temperature 39 °F - - (-1)
Min Temperature 30 °F - - (-1)
Degree Days  
Heating Degree Days 30    
Moisture  
Dew Point 33 °F    
Average Humidity 90    
Maximum Humidity 100    
Minimum Humidity 78    
Precipitation  
Precipitation 0.49 in - - ()
Sea Level Pressure  
Sea Level Pressure 30.23 in    
Wind  
Wind Speed 4 mph (NNE)    
Max Wind Speed 14 mph    
Max Gust Speed 18 mph    
Visibility 5 miles    
Events Rain    
Averages and records for this station are not official NWS values.
T = Trace of Precipitation, MM = Missing Value Source: NWS Daily Summary

Daily Weather History Graph

Daily Weather History Graph

Search for Another Location

Airport or City:

Trip Planner

Search our weather history database for the weather conditions in past years. The results will help you decide how hot, cold, wet, or windy it might be!

Date:

Astronomy

Nov. 27, 2012 Rise Set
Actual Time 6:58 AM EST 4:35 PM EST
Civil Twilight 6:28 AM EST 5:05 PM EST
Nautical Twilight 5:55 AM EST 5:39 PM EST
Astronomical Twilight 5:22 AM EST 6:11 PM EST
Moon 4:05 PM EST (11/27) 6:01 AM EST (11/27)
Length of Visible Light 10h 37m
Length of Day
9h 37m
Waxing Gibbous, 99% of the Moon is Illuminated
Nov 27
Waxing Gibbous
Nov 28
Full
Dec 6
Last Quarter
Dec 13
New
Dec 20
First Quarter

Hourly Weather History & Observations

Time (EST) Temp. Windchill Dew Point Humidity Pressure Visibility Wind Dir Wind Speed Gust Speed Precip Events Conditions
12:54 AM 30.9 °F - 26.1 °F 82% 30.26 in 9.0 mi Calm Calm - N/A   Overcast
1:54 AM 32.0 °F - 28.0 °F 85% 30.27 in 9.0 mi Calm Calm - N/A   Overcast
2:54 AM 33.1 °F - 28.0 °F 82% 30.26 in 9.0 mi Calm Calm - N/A   Overcast
3:54 AM 34.0 °F - 28.0 °F 79% 30.25 in 9.0 mi Calm Calm - N/A   Overcast
4:54 AM 35.1 °F 32.2 °F 28.9 °F 78% 30.25 in 8.0 mi NNE 3.5 mph - N/A   Overcast
5:54 AM 36.0 °F - 30.0 °F 79% 30.27 in 7.0 mi Calm Calm - 0.00 in   Overcast
6:10 AM 35.6 °F - 30.2 °F 81% 30.27 in 5.0 mi Calm Calm - 0.01 in Rain Light Rain
6:54 AM 36.0 °F - 32.0 °F 86% 30.28 in 6.0 mi Calm Calm - 0.04 in Rain Light Rain
7:54 AM 36.0 °F 33.3 °F 33.1 °F 89% 30.27 in 4.0 mi East 3.5 mph - 0.03 in Rain Light Rain
8:21 AM 37.4 °F 34.9 °F 33.8 °F 87% 30.25 in 2.5 mi NNE 3.5 mph - 0.02 in Rain Light Rain
8:45 AM 37.4 °F 33.8 °F 35.6 °F 93% 30.24 in 3.0 mi ENE 4.6 mph - 0.04 in Rain Light Rain
8:54 AM 39.0 °F 36.8 °F 36.0 °F 89% 30.24 in 3.0 mi NE 3.5 mph - 0.04 in Rain Light Rain
9:11 AM 39.2 °F - 35.6 °F 87% 30.24 in 2.5 mi Calm Calm - 0.02 in Rain Light Rain
9:54 AM 37.9 °F 33.5 °F 36.0 °F 93% 30.25 in 2.0 mi NNE 5.8 mph - 0.06 in Rain Rain
10:03 AM 37.4 °F 32.8 °F 35.6 °F 93% 30.25 in 2.5 mi NNE 5.8 mph - 0.01 in Rain Light Rain
10:14 AM 37.4 °F 33.8 °F 35.6 °F 93% 30.25 in 2.0 mi NE 4.6 mph - 0.02 in Rain Light Rain
10:37 AM 37.4 °F 33.8 °F 35.6 °F 93% 30.25 in 1.8 mi NNE 4.6 mph - 0.05 in Rain Rain
10:54 AM 37.9 °F 32.7 °F 36.0 °F 93% 30.25 in 1.8 mi North 6.9 mph - 0.06 in Rain Light Rain
11:32 AM 37.4 °F 30.8 °F 35.6 °F 93% 30.23 in 1.8 mi North 9.2 mph - 0.04 in Rain Light Rain
11:54 AM 37.0 °F 29.8 °F 35.1 °F 93% 30.23 in 2.0 mi NNE 10.4 mph - 0.06 in Rain Light Rain
12:54 PM 36.0 °F 27.5 °F 34.0 °F 93% 30.21 in 2.5 mi North 12.7 mph - 0.06 in Rain Light Rain
12:59 PM 35.6 °F 26.6 °F 33.8 °F 93% 30.20 in 3.0 mi NNE 13.8 mph - 0.01 in Rain Light Rain
1:04 PM 35.6 °F 27.5 °F 33.8 °F 93% 30.19 in 2.5 mi NNE 11.5 mph - 0.01 in Rain Light Rain
1:23 PM 35.6 °F 27.5 °F 33.8 °F 93% 30.19 in 3.0 mi NNE 11.5 mph 18.4 mph 0.02 in Rain Light Rain
1:39 PM 35.6 °F 29.2 °F 33.8 °F 93% 30.20 in 3.0 mi North 8.1 mph - 0.03 in Rain Light Rain
1:54 PM 36.0 °F 29.0 °F 34.0 °F 93% 30.19 in 3.0 mi NNE 9.2 mph - 0.05 in Rain Rain
2:04 PM 35.6 °F 32.8 °F 35.6 °F 100% 30.20 in 2.5 mi NW 3.5 mph - 0.02 in Rain Rain
2:11 PM 35.6 °F 31.7 °F 33.8 °F 93% 30.20 in 2.5 mi North 4.6 mph - 0.03 in Rain Rain
2:17 PM 35.6 °F 29.9 °F 33.8 °F 93% 30.19 in 3.0 mi NNE 6.9 mph - 0.04 in Rain Rain
2:37 PM 35.6 °F 29.2 °F 33.8 °F 93% 30.19 in 3.0 mi North 8.1 mph - 0.06 in Rain Light Rain
2:45 PM 35.6 °F 29.9 °F 33.8 °F 93% 30.19 in 4.0 mi North 6.9 mph - 0.07 in Rain Light Rain
2:54 PM 36.0 °F 29.0 °F 34.0 °F 93% 30.19 in 4.0 mi North 9.2 mph - 0.08 in Rain Light Rain
3:04 PM 35.6 °F 28.6 °F 33.8 °F 93% 30.19 in 5.0 mi NNE 9.2 mph - 0.00 in Rain Light Rain
3:54 PM 36.0 °F 29.0 °F 34.0 °F 93% 30.19 in 5.0 mi NNE 9.2 mph - 0.01 in   Overcast
4:54 PM 36.0 °F 30.3 °F 34.0 °F 93% 30.19 in 7.0 mi North 6.9 mph - 0.00 in   Overcast
5:54 PM 36.0 °F 30.3 °F 34.0 °F 93% 30.19 in 6.0 mi North 6.9 mph - N/A   Overcast
6:54 PM 36.0 °F 29.0 °F 34.0 °F 93% 30.21 in 6.0 mi North 9.2 mph - N/A   Overcast
7:54 PM 36.0 °F 29.6 °F 34.0 °F 93% 30.22 in 7.0 mi North 8.1 mph - N/A   Overcast
8:54 PM 37.0 °F 31.6 °F 34.0 °F 89% 30.23 in 8.0 mi North 6.9 mph - N/A   Overcast
9:54 PM 37.0 °F 31.6 °F 34.0 °F 89% 30.22 in 8.0 mi North 6.9 mph - N/A   Overcast
10:19 PM 37.4 °F 32.1 °F 33.8 °F 87% 30.22 in 10.0 mi NNW 6.9 mph - N/A   Overcast
10:54 PM 37.0 °F 31.6 °F 33.1 °F 86% 30.23 in 10.0 mi NNW 6.9 mph - N/A   Overcast
11:54 PM 36.0 °F 31.1 °F 33.1 °F 89% 30.23 in 10.0 mi NNW 5.8 mph - N/A   Overcast